Location: Newark
(49.2194°N, 20.0100°E)
Time: 16:50:31
(UTC+00:00)

X-37B - Visible Passes

Search period start: 25 February 2021 00:00
Search period end: 07 March 2021 00:00
Orbit: 383 x 391 km, 45.0° (Epoch: 10 February)

Date Brightness Start Highest point End Pass type
(mag) Time Alt. Az. Time Alt. Az. Time Alt. Az.
25 Feb 1.7 03:31:20 36° SSE 03:31:20 36° SSE 03:33:53 10° ESE visible
26 Feb 4.0 02:35:33 10° ESE 02:35:33 10° ESE 02:35:37 10° ESE visible
26 Feb 1.7 04:07:49 24° SW 04:08:56 30° SSW 04:11:46 10° SE visible
27 Feb 2.6 03:12:04 23° SE 03:12:04 23° SE 03:13:38 10° ESE visible
27 Feb 2.6 04:44:38 10° WSW 04:46:50 17° SSW 04:49:02 10° SSE visible
28 Feb 2.0 03:48:39 24° SSW 03:48:40 24° SSW 03:51:17 10° SE visible
01 Mar 3.6 02:53:00 12° SE 02:53:00 12° SE 02:53:18 10° SE visible
01 Mar 2.9 04:25:18 10° SW 04:26:28 12° SSW 04:27:43 10° S visible
02 Mar 3.0 03:29:44 14° S 03:29:44 14° S 03:30:33 10° SSE visible
